Weather History for Perry, IA

Change the Weather History Date:

Thursday, February 3, 2011

  Actual Average Record
Temperature  
Mean Temperature 5 °F -  
Max Temperature 19 °F 27 °F 62 °F (1992)
Min Temperature -9 °F 7 °F -17 °F (1989)
Degree Days  
Heating Degree Days 60    
Moisture  
Dew Point 0 °F    
Average Humidity 75    
Maximum Humidity 92    
Minimum Humidity 58    
Precipitation  
Precipitation 0.00 in - - ()
Sea Level Pressure  
Sea Level Pressure 30.37 in    
Wind  
Wind Speed 11 mph (SSW)    
Max Wind Speed 20 mph    
Max Gust Speed 25 mph    
Visibility 10 miles    
Events      
Averages and records for this station are not official NWS values.
T = Trace of Precipitation, MM = Missing Value Source: NWS Daily Summary

Daily Weather History Graph

Daily Weather History Graph

Search for Another Location

Airport:

Trip Planner

Search our weather history database for the weather conditions in past years. The results will help you decide how hot, cold, wet, or windy it might be!

Date:

Astronomy

Feb. 03, 2011 Rise Set
Actual Time 7:27 AM CST 5:34 PM CST
Civil Twilight 6:57 AM CST 6:03 PM CST
Nautical Twilight 6:24 AM CST 6:36 PM CST
Astronomical Twilight 5:52 AM CST 7:09 PM CST
Moon 7:27 AM CST (2/3) 6:30 PM CST (2/3)
Length of Visible Light 11h 05m
Length of Day
10h 07m
New Moon, 0% of the Moon is Illuminated
Feb 3
New Moon
Feb 11
First Quarter
Feb 18
Full
Feb 24
Last Quarter
Mar 4
New

Hourly Weather History & Observations

Time (CST) Temp. Windchill Dew Point Humidity Pressure Visibility Wind Dir Wind Speed Gust Speed Precip Events Conditions
12:15 AM -7.6 °F -23.4 °F -13.0 °F 77% 30.56 in 10.0 mi WSW 8.1 mph - N/A   Clear
12:35 AM -7.6 °F -23.4 °F -13.0 °F 77% 30.56 in 10.0 mi WSW 8.1 mph - N/A   Clear
12:55 AM -7.6 °F -22.1 °F -13.0 °F 77% 30.55 in 10.0 mi WSW 6.9 mph - N/A   Clear
1:15 AM -7.6 °F -22.1 °F -13.0 °F 77% 30.54 in 10.0 mi SW 6.9 mph - N/A   Clear
1:35 AM -7.6 °F -16.5 °F -13.0 °F 77% 30.54 in 10.0 mi SSE 3.5 mph - N/A   Clear
1:55 AM -7.6 °F -18.8 °F -11.2 °F 84% 30.53 in 10.0 mi South 4.6 mph - N/A   Clear
2:15 AM -7.6 °F -23.4 °F -11.2 °F 84% 30.53 in 10.0 mi SSW 8.1 mph - N/A   Clear
2:35 AM -7.6 °F -16.5 °F -13.0 °F 77% 30.52 in 10.0 mi SSW 3.5 mph - N/A   Clear
2:55 AM -7.6 °F -18.8 °F -9.4 °F 92% 30.52 in 10.0 mi SSW 4.6 mph - N/A   Clear
3:15 AM -7.6 °F -23.4 °F -11.2 °F 84% 30.51 in 10.0 mi SSW 8.1 mph - N/A   Clear
3:35 AM -9.4 °F -25.6 °F -13.0 °F 84% 30.50 in 10.0 mi SSW 8.1 mph - N/A   Clear
3:55 AM -9.4 °F -25.6 °F -13.0 °F 84% 30.48 in 10.0 mi SSW 8.1 mph - N/A   Clear
4:15 AM -5.8 °F -19.9 °F -9.4 °F 84% 30.47 in 10.0 mi SSW 6.9 mph - N/A   Clear
4:35 AM -5.8 °F - -9.4 °F 84% 30.47 in 10.0 mi Calm Calm - N/A   Clear
4:55 AM -4.0 °F -16.3 °F -7.6 °F 85% 30.46 in 10.0 mi SSW 5.8 mph - N/A   Clear
5:35 AM -4.0 °F -22.1 °F -7.6 °F 85% 30.45 in 10.0 mi SW 11.5 mph - N/A   Clear
5:55 AM -0.4 °F -19.9 °F -5.8 °F 78% 30.44 in 10.0 mi SSW 15.0 mph - N/A   Clear
6:15 AM -5.8 °F -24.4 °F -9.4 °F 84% 30.44 in 10.0 mi SSW 11.5 mph - N/A   Clear
6:35 AM -5.8 °F -22.4 °F -9.4 °F 84% 30.44 in 10.0 mi SSW 9.2 mph - N/A   Clear
7:15 AM -0.4 °F -19.9 °F -4.0 °F 85% 30.42 in 10.0 mi SSW 15.0 mph - N/A   Clear
7:35 AM 1.4 °F -16.9 °F -4.0 °F 78% 30.42 in 10.0 mi SSW 13.8 mph - N/A   Clear
7:55 AM 1.4 °F -17.6 °F -4.0 °F 78% 30.42 in 10.0 mi SSW 15.0 mph - N/A   Clear
8:15 AM 1.4 °F -18.2 °F -4.0 °F 78% 30.41 in 10.0 mi SSW 16.1 mph - N/A   Clear
8:35 AM 1.4 °F -16.9 °F -4.0 °F 78% 30.41 in 10.0 mi SSW 13.8 mph - N/A   Clear
8:55 AM 1.4 °F -17.6 °F -4.0 °F 78% 30.41 in 10.0 mi SSW 15.0 mph - N/A   Clear
9:15 AM 3.2 °F -15.3 °F -4.0 °F 72% 30.41 in 10.0 mi SSW 15.0 mph - N/A   Clear
9:35 AM 5.0 °F -13.0 °F -0.4 °F 78% 30.40 in 10.0 mi SSW 15.0 mph - N/A   Clear
9:55 AM 5.0 °F -12.3 °F -0.4 °F 78% 30.39 in 10.0 mi SSW 13.8 mph - N/A   Clear
10:15 AM 8.6 °F -6.3 °F 1.4 °F 73% 30.39 in 10.0 mi SSW 11.5 mph - N/A   Clear
10:35 AM 10.4 °F -4.8 °F 3.2 °F 73% 30.38 in 10.0 mi SSW 12.7 mph - N/A   Clear
10:55 AM 10.4 °F -5.4 °F 3.2 °F 73% 30.37 in 10.0 mi South 13.8 mph - N/A   Clear
11:15 AM 12.2 °F -4.3 °F 5.0 °F 73% 30.36 in 10.0 mi SSW 16.1 mph - N/A   Clear
11:35 AM 14.0 °F -2.0 °F 5.0 °F 67% 30.37 in 10.0 mi SSW 16.1 mph - N/A   Clear
11:55 AM 17.6 °F 2.2 °F 5.0 °F 58% 30.35 in 10.0 mi SSW 17.3 mph - N/A   Clear
12:15 PM 17.6 °F 1.7 °F 5.0 °F 58% 30.33 in 10.0 mi SSW 18.4 mph - N/A   Clear
12:35 PM 17.6 °F 2.2 °F 6.8 °F 63% 30.32 in 10.0 mi SSW 17.3 mph - N/A   Clear
12:55 PM 19.4 °F 3.6 °F 6.8 °F 58% 30.30 in 10.0 mi SSW 19.6 mph 25.3 mph N/A   Clear
1:15 PM 19.4 °F 4.1 °F 6.8 °F 58% 30.30 in 10.0 mi SW 18.4 mph 24.2 mph N/A   Clear
1:35 PM 19.4 °F 4.1 °F 8.6 °F 63% 30.29 in 10.0 mi SSW 18.4 mph 23.0 mph N/A   Clear
1:55 PM 19.4 °F 3.6 °F 8.6 °F 63% 30.27 in 10.0 mi SSW 19.6 mph - N/A   Clear
2:15 PM 19.4 °F 4.5 °F 8.6 °F 63% 30.26 in 10.0 mi SSW 17.3 mph - N/A   Clear
2:55 PM 19.4 °F 4.1 °F 8.6 °F 63% 30.24 in 10.0 mi SSW 18.4 mph - N/A   Clear
3:15 PM 19.4 °F 3.6 °F 10.4 °F 68% 30.24 in 10.0 mi SSW 19.6 mph - N/A   Clear
3:35 PM 19.4 °F 6.0 °F 8.6 °F 63% 30.24 in 10.0 mi SSW 13.8 mph - N/A   Clear
3:55 PM 19.4 °F 6.0 °F 8.6 °F 63% 30.25 in 10.0 mi SSW 13.8 mph - N/A   Clear
4:15 PM 19.4 °F 5.0 °F 8.6 °F 63% 30.25 in 10.0 mi SW 16.1 mph - N/A   Clear
4:35 PM 19.4 °F 5.0 °F 8.6 °F 63% 30.25 in 10.0 mi SSW 16.1 mph - N/A   Clear
4:55 PM 17.6 °F 3.2 °F 8.6 °F 68% 30.25 in 10.0 mi SSW 15.0 mph - N/A   Clear
5:15 PM 17.6 °F 2.7 °F 8.6 °F 68% 30.24 in 10.0 mi SSW 16.1 mph - N/A   Clear
5:35 PM 15.8 °F -0.2 °F 8.6 °F 73% 30.23 in 10.0 mi SSW 17.3 mph - N/A   Clear
5:55 PM 15.8 °F 2.1 °F 8.6 °F 73% 30.24 in 10.0 mi SSW 12.7 mph - N/A   Clear
6:15 PM 14.0 °F -1.4 °F 8.6 °F 79% 30.24 in 10.0 mi SSW 15.0 mph - N/A   Clear
6:35 PM 14.0 °F -1.4 °F 8.6 °F 79% 30.24 in 10.0 mi SSW 15.0 mph - N/A   Clear
6:55 PM 14.0 °F -1.4 °F 8.6 °F 79% 30.23 in 10.0 mi SSW 15.0 mph - N/A   Clear
7:35 PM 14.0 °F -1.4 °F 8.6 °F 79% 30.23 in 10.0 mi SSW 15.0 mph - N/A   Clear
7:55 PM 14.0 °F -0.8 °F 8.6 °F 79% 30.23 in 10.0 mi SSW 13.8 mph - N/A   Clear
8:15 PM 14.0 °F -0.8 °F 8.6 °F 79% 30.23 in 10.0 mi SSW 13.8 mph - N/A   Clear
8:35 PM 14.0 °F -0.8 °F 8.6 °F 79% 30.23 in 10.0 mi SSW 13.8 mph - N/A   Clear
8:55 PM 14.0 °F -0.8 °F 8.6 °F 79% 30.23 in 10.0 mi SSW 13.8 mph - N/A   Clear
9:15 PM 14.0 °F 0.5 °F 8.6 °F 79% 30.23 in 10.0 mi SSW 11.5 mph - N/A   Clear
9:35 PM 14.0 °F 0.5 °F 8.6 °F 79% 30.23 in 10.0 mi SSW 11.5 mph - N/A   Clear
9:55 PM 12.2 °F -1.8 °F 6.8 °F 79% 30.24 in 10.0 mi SSW 11.5 mph - N/A   Clear
10:15 PM 12.2 °F -1.8 °F 6.8 °F 79% 30.23 in 10.0 mi SSW 11.5 mph - N/A   Clear
10:35 PM 12.2 °F -1.8 °F 8.6 °F 85% 30.22 in 10.0 mi SSW 11.5 mph - N/A   Clear
10:55 PM 12.2 °F -2.5 °F 8.6 °F 85% 30.21 in 10.0 mi SSW 12.7 mph - N/A   Clear
11:15 PM 12.2 °F -3.1 °F 8.6 °F 85% 30.20 in 10.0 mi SSW 13.8 mph - N/A   Clear
11:35 PM 14.0 °F -0.8 °F 8.6 °F 79% 30.20 in 10.0 mi SSW 13.8 mph - N/A   Clear
11:55 PM 14.0 °F -0.8 °F 8.6 °F 79% 30.18 in 10.0 mi SSW 13.8 mph - N/A   Clear